IK5NLA Vaiano IT current weather conditions

sailwx.info

Wind from 227 at 9 knots

Air temperature 6.1° C
Dewpoint 4.8° C

Last reported at 2016-Feb-12 17:41 UTC.
Time now 2016-Feb-12 18:13 UTC

Location: N 43°58' E 011°06'.
View on Google Maps.

See reports from other nearby stations

  
Tides and Currents Weather Stations Pressure Air Temp Water Temp Dewpoint Dewpoint Depression Visibility Wind Speed Wind Dir Waves Ship Positions
date/time (UTC)wind fromknots sea level pressurealtimeterstation pressurevisibilityair tempwater tempwave heightnotes
2016-Feb-12 17:41 227 9 6.1
2016-Feb-12 17:36 242 8 6.1
2016-Feb-12 17:21 254 6 6.1
2016-Feb-12 17:11 241 6 5.6
2016-Feb-12 17:06 204 5 5.6
2016-Feb-12 16:56 235 3 5.0
2016-Feb-12 16:51 184 4 5.6
2016-Feb-12 16:41 180 3 5.6
2016-Feb-12 16:31 206 3 5.6
2016-Feb-12 16:11 290 6 5.6
2016-Feb-12 15:51 194 6 5.6
2016-Feb-12 15:46 207 4 5.6
2016-Feb-12 15:36 207 3 5.6
2016-Feb-12 15:31 303 3 5.6
2016-Feb-12 15:26 304 2 5.6
2016-Feb-12 15:16 272 3 5.6
2016-Feb-12 15:11 311 4 5.6
2016-Feb-12 15:06 257 5 5.6
2016-Feb-12 15:01 301 5 5.6
2016-Feb-12 14:56 261 5 6.1
2016-Feb-12 14:31 200 7 6.7
2016-Feb-12 14:21 252 6 6.7
2016-Feb-12 14:16 157 6 7.2
2016-Feb-12 14:06 195 6 7.2
2016-Feb-12 14:01 180 6 7.2
2016-Feb-12 13:56 179 7 7.2
2016-Feb-12 13:41 188 6 7.2
2016-Feb-12 13:36 211 6 7.2
2016-Feb-12 13:26 178 7 7.2
2016-Feb-12 13:21 194 8 7.2
2016-Feb-12 13:16 184 9 7.2
2016-Feb-12 13:01 140 7 7.2
2016-Feb-12 12:56 211 8 7.2
2016-Feb-12 12:41 186 8 6.7
2016-Feb-12 12:36 198 7 6.7
2016-Feb-12 12:11 211 8 6.1
2016-Feb-12 12:06 190 10 6.1
2016-Feb-12 12:01 165 9 6.1
2016-Feb-12 11:56 185 7 6.1
2016-Feb-12 11:51 148 6 6.1
2016-Feb-12 11:46 194 6 5.6
2016-Feb-12 11:41 242 7 5.6
2016-Feb-12 11:36 214 6 5.6
2016-Feb-12 11:21 232 7 5.6
2016-Feb-12 11:11 195 7 5.6
2016-Feb-12 11:01 232 6 5.6
2016-Feb-12 10:46 196 6 5.6
2016-Feb-12 10:41 190 6 5.6
2016-Feb-12 10:36 164 4 5.6
2016-Feb-12 10:21 148 2 5.6
2016-Feb-12 10:06 263 4 5.0
2016-Feb-12 10:01 173 6 4.4
2016-Feb-12 09:46 220 5 4.4
2016-Feb-12 09:36 172 3 4.4
2016-Feb-12 09:26 153 3 3.9
2016-Feb-12 09:21 144 3 3.9
2016-Feb-12 09:16 159 3 3.9
2016-Feb-12 08:56 088 1 3.3
2016-Feb-12 08:51 155 2 3.9
2016-Feb-12 08:31 063 0 3.3
2016-Feb-12 08:26 063 0 3.3
2016-Feb-12 08:16 068 0 3.3
2016-Feb-12 08:11 069 3.3
2016-Feb-12 08:06 068 0 3.3
2016-Feb-12 08:01 068 1 3.3
2016-Feb-12 07:56 113 1 3.3
2016-Feb-12 07:51 135 1 3.3
2016-Feb-12 07:41 106 0 3.9
2016-Feb-12 07:36 024 0 3.3
2016-Feb-12 07:21 023 1 3.3
2016-Feb-12 07:16 025 1 3.3
2016-Feb-12 07:11 330 1 2.8
2016-Feb-12 07:06 346 1 2.8
2016-Feb-12 07:01 090 1 2.8
2016-Feb-12 06:56 336 0 3.3
2016-Feb-12 06:51 336 1 3.3
2016-Feb-12 06:46 336 0 2.8
2016-Feb-12 06:41 360 0 2.8
2016-Feb-12 06:36 360 0 2.8
2016-Feb-12 06:16 042 2 2.2
2016-Feb-12 06:11 027 2 2.2
2016-Feb-12 06:06 101 1 2.2
2016-Feb-12 06:01 105 0 2.2
2016-Feb-12 05:56 107 0 2.2
2016-Feb-12 05:51 106 1 2.2
2016-Feb-12 05:46 107 1 2.8
2016-Feb-12 05:36 090 1 3.3
2016-Feb-12 05:21 345 2 2.8
2016-Feb-12 05:11 338 2 2.8
2016-Feb-12 05:01 026 2 2.8
2016-Feb-12 04:41 233 2.8
2016-Feb-12 04:06 360 2 2.8
2016-Feb-12 03:56 033 1 2.8
2016-Feb-12 03:51 038 2 3.3
2016-Feb-12 03:36 345 2 3.3
2016-Feb-12 03:26 360 2 2.8
2016-Feb-12 03:11 299 1 3.3
2016-Feb-12 03:01 298 1 3.3
2016-Feb-12 02:51 277 1 3.3
2016-Feb-12 02:36 212 3.3
2016-Feb-12 02:11 212 3.9
2016-Feb-12 01:56 212 1 3.9
2016-Feb-12 01:51 212 2 3.9
2016-Feb-12 01:46 246 2 3.9
2016-Feb-12 01:36 198 2 3.9
2016-Feb-12 01:26 219 3 3.9
2016-Feb-12 01:16 188 2 3.9
2016-Feb-12 00:56 187 2 3.9
2016-Feb-12 00:51 200 4 3.9
2016-Feb-12 00:16 272 3 3.9
2016-Feb-12 00:11 244 3 3.9
2016-Feb-12 00:01 214 4 3.9
2016-Feb-11 23:56 239 4 3.9
2016-Feb-11 23:51 195 5 3.9
2016-Feb-11 23:41 206 6 3.9
2016-Feb-11 23:36 230 5 3.9
2016-Feb-11 23:16 269 1 3.9
2016-Feb-11 23:11 242 1 3.9
2016-Feb-11 23:06 224 3 3.9
2016-Feb-11 23:01 262 4 3.9
2016-Feb-11 22:56 226 4 3.9
2016-Feb-11 22:46 223 6 3.9
2016-Feb-11 22:41 196 6 4.4
2016-Feb-11 22:36 243 6 4.4
2016-Feb-11 22:31 268 5 4.4
2016-Feb-11 22:26 246 1 4.4
2016-Feb-11 22:11 053 4.4
2016-Feb-11 22:06 053 0 3.9
2016-Feb-11 22:01 052 0 3.9
2016-Feb-11 21:51 059 1 3.9
2016-Feb-11 21:46 071 0 3.9
2016-Feb-11 21:31 075 4.4
2016-Feb-11 21:26 075 4.4
2016-Feb-11 21:11 071 0 4.4
2016-Feb-11 21:06 034 0 4.4
2016-Feb-11 21:01 024 0 4.4
2016-Feb-11 20:51 242 1 4.4
2016-Feb-11 20:46 241 2 5.0
2016-Feb-11 20:36 234 3 5.0
2016-Feb-11 20:26 182 4 5.6
2016-Feb-11 20:21 245 3 5.6
2016-Feb-11 20:16 265 3 5.6
2016-Feb-11 20:11 238 2 5.6
2016-Feb-11 20:06 238 1 5.0
2016-Feb-11 20:01 254 0 5.0
2016-Feb-11 19:56 283 0 5.0
2016-Feb-11 19:51 283 0 5.0
2016-Feb-11 19:46 283 0 5.0
2016-Feb-11 19:41 223 0 5.6
2016-Feb-11 19:26 211 0 5.6
2016-Feb-11 19:21 212 0 5.6
2016-Feb-11 19:16 211 0 5.6
2016-Feb-11 19:11 212 5.6
2016-Feb-11 19:06 212 0 5.6
2016-Feb-11 18:56 212 0 5.6
2016-Feb-11 18:46 184 1 6.1
2016-Feb-11 18:36 171 1 6.1
2016-Feb-11 18:26 089 2 6.1
2016-Feb-11 18:11 063 1 6.7
2016-Feb-11 18:06 267 2 6.7
2016-Feb-11 18:01 268 1 6.7
2016-Feb-11 17:56 259 2 6.7
2016-Feb-11 17:36 279 3 6.1
2016-Feb-11 17:31 297 2 6.1
2016-Feb-11 17:26 297 1 6.7
2016-Feb-11 17:21 341 1 6.1
2016-Feb-11 17:16 341 1 6.7
2016-Feb-11 17:11 069 1 6.7
2016-Feb-11 17:01 128 0 6.7
2016-Feb-11 16:36 264 4 7.2
2016-Feb-11 16:11 214 6 7.8
2016-Feb-11 15:56 207 6 8.3
2016-Feb-11 15:36 280 6 8.3
2016-Feb-11 15:21 233 6 8.3
2016-Feb-11 15:16 238 6 8.9
2016-Feb-11 15:11 192 5 8.9
2016-Feb-11 15:06 271 6 8.9
2016-Feb-11 15:01 276 6 8.9
2016-Feb-11 14:26 197 4 8.9
2016-Feb-11 14:11 188 5 8.9
2016-Feb-11 14:06 232 6 8.9
2016-Feb-11 13:56 215 6 8.9
2016-Feb-11 13:51 213 5 8.9
2016-Feb-11 13:41 272 6 8.3
2016-Feb-11 13:36 238 6 8.3
2016-Feb-11 13:26 273 6 8.3
2016-Feb-11 13:16 234 6 8.9
2016-Feb-11 12:56 211 5 8.9
2016-Feb-11 12:51 172 3 8.9
2016-Feb-11 12:46 159 3 8.9
2016-Feb-11 12:36 199 3 8.9
2016-Feb-11 12:16 236 3 8.9
2016-Feb-11 12:11 235 3 8.3
2016-Feb-11 12:06 250 3 8.3
2016-Feb-11 11:51 177 4 8.3
2016-Feb-11 11:41 261 6 7.8
2016-Feb-11 11:36 206 5 8.3
2016-Feb-11 11:21 266 5 7.8
2016-Feb-11 11:16 257 4 7.8
2016-Feb-11 11:11 225 4 7.8
2016-Feb-11 10:56 238 6 7.2
2016-Feb-11 10:51 259 6 7.2
2016-Feb-11 10:36 221 4 7.8
2016-Feb-11 10:31 182 4 7.8
2016-Feb-11 10:21 230 2 8.3
2016-Feb-11 10:16 253 2 7.8
2016-Feb-11 09:56 160 1 7.8
2016-Feb-11 09:51 126 1 7.8
2016-Feb-11 09:41 107 1 7.8
2016-Feb-11 09:21 076 2 7.2
2016-Feb-11 09:06 119 1 6.7
2016-Feb-11 08:56 098 2 6.1
2016-Feb-11 08:51 109 2 6.1
2016-Feb-11 08:31 096 2 6.1
2016-Feb-11 08:21 091 2 6.1
2016-Feb-11 08:11 113 2 5.6
2016-Feb-11 08:01 089 2 5.0
2016-Feb-11 07:46 136 1 5.6
2016-Feb-11 07:41 101 2 5.6
2016-Feb-11 07:36 034 3 5.0
2016-Feb-11 07:31 019 3 5.0
2016-Feb-11 07:21 065 2 5.0
2016-Feb-11 07:16 060 2 4.4
2016-Feb-11 07:11 039 2 4.4
2016-Feb-11 07:06 013 2 4.4
2016-Feb-11 06:51 348 1 3.9
2016-Feb-11 06:46 338 2 3.3
2016-Feb-11 06:36 339 3 3.3
2016-Feb-11 06:21 311 4 3.3
2016-Feb-11 06:11 312 4 3.3
2016-Feb-11 05:56 333 3 3.9
2016-Feb-11 05:51 327 3 3.9
2016-Feb-11 05:46 345 2 3.9
2016-Feb-11 05:41 338 2 3.9
2016-Feb-11 05:36 338 2 3.9
2016-Feb-11 05:26 336 2 4.4
2016-Feb-11 05:21 331 3 4.4
2016-Feb-11 05:06 355 2 3.9
2016-Feb-11 04:46 346 2 3.9
2016-Feb-11 04:41 325 2 3.3
2016-Feb-11 04:31 355 2 3.3
2016-Feb-11 04:21 005 0 3.3
2016-Feb-11 04:16 316 3.3
2016-Feb-11 04:11 316 3.9
2016-Feb-11 03:56 315 1 4.4
2016-Feb-11 03:51 315 1 4.4
2016-Feb-11 03:46 315 1 3.9
2016-Feb-11 03:41 315 1 3.9
2016-Feb-11 03:21 315 2 3.9
2016-Feb-11 03:16 306 3 3.9
2016-Feb-11 03:11 306 2 3.3
2016-Feb-11 03:06 325 2 3.3
2016-Feb-11 03:01 355 3 3.3
2016-Feb-11 02:56 022 2 3.3
2016-Feb-11 02:41 315 2 3.9
2016-Feb-11 02:26 296 0 3.9
2016-Feb-11 02:21 274 1 3.9
2016-Feb-11 02:16 179 2 4.4
2016-Feb-11 02:06 319 3 4.4
2016-Feb-11 02:01 322 3 4.4
2016-Feb-11 01:51 322 2 4.4
2016-Feb-11 01:46 330 3 4.4
2016-Feb-11 01:41 336 3 4.4
2016-Feb-11 01:21 326 2 4.4
2016-Feb-11 01:16 338 3 4.4
2016-Feb-11 01:06 318 3 3.9
2016-Feb-11 00:56 317 1 4.4
2016-Feb-11 00:51 059 0 4.4
2016-Feb-11 00:46 059 1 4.4
2016-Feb-11 00:41 061 1 4.4
2016-Feb-11 00:31 014 1 4.4
2016-Feb-11 00:26 348 2 4.4
2016-Feb-11 00:21 348 2 4.4
2016-Feb-11 00:11 057 1 4.4
2016-Feb-11 00:06 333 1 4.4
2016-Feb-11 00:01 333 1 4.4
2016-Feb-10 23:56 333 1 4.4
2016-Feb-10 23:46 326 2 4.4
2016-Feb-10 23:31 331 2 4.4
2016-Feb-10 23:16 323 0 4.4
2016-Feb-10 23:11 324 1 4.4
2016-Feb-10 23:06 324 1 4.4
2016-Feb-10 22:56 324 0 4.4
2016-Feb-10 22:51 324 0 4.4
2016-Feb-10 22:41 324 0 4.4
2016-Feb-10 22:36 323 1 4.4
2016-Feb-10 22:31 323 2 4.4
2016-Feb-10 22:26 323 2 4.4
2016-Feb-10 22:16 319 1 4.4
2016-Feb-10 22:11 319 2 4.4
2016-Feb-10 22:06 304 1 4.4
2016-Feb-10 22:01 304 2 5.0
2016-Feb-10 21:56 295 2 5.0
2016-Feb-10 21:51 290 2 5.0
2016-Feb-10 21:46 289 2 4.4
2016-Feb-10 21:36 281 2 4.4
2016-Feb-10 21:31 282 2 4.4
2016-Feb-10 21:26 281 2 4.4
2016-Feb-10 21:11 285 2 4.4
2016-Feb-10 21:06 287 2 5.0
2016-Feb-10 20:56 303 2 5.0
2016-Feb-10 20:51 299 2 5.0
2016-Feb-10 20:41 284 2 5.0
2016-Feb-10 20:36 296 2 5.0
2016-Feb-10 20:31 257 2 5.0
2016-Feb-10 20:26 271 2 5.0
2016-Feb-10 20:16 260 2 5.0
2016-Feb-10 20:11 269 3 5.0
2016-Feb-10 19:51 273 1 4.4
2016-Feb-10 19:36 278 2 5.0
2016-Feb-10 19:31 263 2 5.0
2016-Feb-10 19:26 235 1 5.6
2016-Feb-10 19:21 307 2 5.6
2016-Feb-10 19:16 281 3 5.6
2016-Feb-10 18:46 265 4 6.1
2016-Feb-10 18:41 261 5 6.1
2016-Feb-10 18:26 232 2 6.1
2016-Feb-10 18:21 323 1 6.1
2016-Feb-10 18:16 164 1 6.1
2016-Feb-10 18:06 183 2 6.1